Flight Track Log - Related Links

Times and Time Zones

All times are in EDT time to prevent confusion due to time zone crossing. See the EGF3209 flight status page for this flight to view local times or setup timezone preferences in your user account.

Time Position Orientation Groundspeed Altitude Reporting Facility
EDT Latitude Longitude Course Direction KTS MPH feet Rate Location/Type
Sat 04:45:15 PM 34.5535 -98.4048 165° South  Level FlightAware Approximate
Sat 04:46:15 PM 34.4935 -98.3641 209° Southwest  Level FlightAware Approximate
Sat 04:47:23 PM 34.4722 -98.3783 155° Southeast 233 268 5,000  Level Fort Worth Center
Sat 04:48:23 PM 34.4097 -98.3425 158° South 244 281 8,000 2,450 Climbing Fort Worth Center
Sat 04:49:23 PM 34.3369 -98.3064 147° Southeast 250 288 9,900 1,450 Climbing Fort Worth Center
Sat 04:50:23 PM 34.2664 -98.2503 151° Southeast 278 320 10,900 1,000 Climbing Fort Worth Center
Sat 04:51:23 PM 34.1856 -98.1969 150° Southeast 317 365 11,900 950 Climbing Fort Worth Center
Sat 04:52:23 PM 34.1022 -98.1383 151° Southeast 345 397 12,800 1,000 Climbing Fort Worth Center
Sat 04:53:23 PM 34.0108 -98.0775 149° Southeast 365 420 13,900 1,050 Climbing Fort Worth Center
Sat 04:54:23 PM 33.9194 -98.0117 151° Southeast 376 433 14,900 500 Climbing Fort Worth Center
Sat 04:55:23 PM 33.8236 -97.9486 150° Southeast 388 447 14,900  Level Fort Worth Center
Sat 04:56:23 PM 33.7364 -97.8881 150° Southeast 395 455 14,900  Level Fort Worth Center
Sat 04:57:23 PM 33.6406 -97.8203 150° Southeast 400 460 14,900  Level Fort Worth Center
Sat 04:58:05 PM 33.5700 -97.7706 151° Southeast 399 459 14,900 -667 Level FAA TRACON SMA TRACON (SMA)
Sat 04:58:44 PM 33.5114 -97.7314 150° Southeast 390 449 14,000 -2,203 Descending FAA TRACON SMA TRACON (SMA)
Sat 04:59:24 PM 33.4478 -97.6878 150° Southeast 378 435 12,000 -2,475 Descending FAA TRACON SMA TRACON (SMA)
Sat 05:00:04 PM 33.3881 -97.6467 138° Southeast 358 412 10,700 -1,275 Descending FAA TRACON SMA TRACON (SMA)
Sat 05:00:44 PM 33.3422 -97.5975 134° Southeast 311 358 10,300 -759 Descending FAA TRACON SMA TRACON (SMA)
Sat 05:01:23 PM 33.3081 -97.5556 121° Southeast 282 325 9,700 -1,050 Descending FAA TRACON SMA TRACON (SMA)
Sat 05:02:04 PM 33.2811 -97.5028 100° East 281 323 8,900 -1,125 Descending FAA TRACON SMA TRACON (SMA)
Sat 05:02:43 PM 33.2725 -97.4444 100° East 289 333 8,200 -1,125 Descending FAA TRACON SMA TRACON (SMA)
Sat 05:03:24 PM 33.2628 -97.3817 103° East 277 319 7,400 -1,778 Descending FAA TRACON SMA TRACON (SMA)
Sat 05:04:04 PM 33.2511 -97.3217 103° East 268 308 5,800 -1,800 Descending FAA TRACON SMA TRACON (SMA)
Sat 05:04:44 PM 33.2394 -97.2608 101° East 270 311 5,000 -684 Descending FAA TRACON SMA TRACON (SMA)
Sat 05:05:23 PM 33.2308 -97.2081 102° East 263 303 4,900 -525 Descending FAA TRACON SMA TRACON (SMA)
Sat 05:06:04 PM 33.2208 -97.1503 126° Southeast 258 297 4,300 -741 Descending FAA TRACON SMA TRACON (SMA)
Sat 05:06:44 PM 33.1961 -97.1097 143° Southeast 250 288 3,900 -456 Descending FAA TRACON SMA TRACON (SMA)
Sat 05:07:23 PM 33.1603 -97.0778 157° South 234 269 3,700 -600 Descending FAA TRACON SMA TRACON (SMA)
Sat 05:08:04 PM 33.1175 -97.0558 179° South 246 283 3,100 -593 Descending FAA TRACON SMA TRACON (SMA)
Sat 05:08:44 PM 33.0778 -97.0547 179° South 231 266 2,900 -300 Descending FAA TRACON SMA TRACON (SMA)

Login

Don't have an account? Register now (free) for customized features, flight alerts, and more!